Temp
66 66 66 67 67 68 68 68 68 67 67 66 66 66 67 67 66 66 65 65 64 64 64 63 64 64 64 63 63 64 64 65 65 64 64 64 64 63 63 62 62 62 62 62 62 61 61 60 60 60 60 58
63 64 65 66 67 67 67 67 67 66 65 65 65 65 66 66 65 65 64 64 64 63 64 63 63 63 63 63 64 64 64 63 62 62 62 62 62 62 62 62 61 61 62 61 61 61 60 60 60 60 59 56
62 63 64 65 65 65 65 64 64 64 64 64 63 63 63 64 64 63 63 63 62 62 62 62 62 62 63 64 64 63 62 61 62 61 61 61 61 61 61 61 61 60 61 61 61 61 60 60 60 60 58 55
61 62 62 62 63 63 63 62 62 62 61 61 61 61 61 62 61 62 61 62 60 61 61 61 60 61 63 63 62 62 61 61 62 62 61 61 61 61 60 61 59 57 59 60 60 60 60 59 59 56 56 55
60 59 60 60 60 60 60 59 60 60 59 58 59 59 60 60 58 57 57 58 58 59 57 59 59 60 61 62 61 61 61 61 61 61 60 60 59 57 55 54 55 55 57 59 59 59 58 58 54 55 56 56
59 60 60 60 59 58 58 59 59 59 59 57 56 59 58 58 57 57 56 56 56 56 56 57 59 59 60 61 61 61 61 61 60 59 58 57 56 55 56 55 49 50 55 57 58 58 57 54 53 53 55 55
59 60 61 60 59 58 59 58 58 58 58 57 56 56 56 56 57 57 57 55 55 55 57 56 58 58 59 60 61 60 60 59 58 58 57 57 56 56 56 52 49 50 48 50 57 55 52 51 54 53 52 51
59 59 60 60 60 60 59 59 58 58 57 57 56 56 56 56 56 55 52 53 53 53 53 54 55 55 54 53 54 55 56 56 55 56 56 56 56 54 52 49 48 49 50 48 50 50 48 49 52 52 52 50
58 59 59 61 60 60 59 58 58 58 58 57 57 57 59 56 55 53 52 52 53 52 52 51 51 51 50 50 50 51 48 49 51 51 49 49 49 49 50 49 48 49 51 51 51 49 48 48 51 52 51 50
60 61 60 60 60 60 60 58 58 57 57 57 57 55 56 56 55 53 52 53 54 55 52 51 50 50 49 49 48 49 47 48 49 48 49 49 48 48 49 49 49 50 51 51 48 47 47 48 48 50 48 49
59 57 60 60 60 60 59 58 57 56 56 56 55 56 54 53 52 51 50 51 51 53 54 52 50 50 49 48 48 48 47 47 47 47 48 47 45 47 46 46 47 48 49 49 50 47 45 46 47 47 48 48
61 62 61 60 59 59 58 57 56 56 55 55 53 55 55 53 52 50 49 51 50 49 52 53 53 52 50 49 49 49 49 47 45 46 44 44 44 46 43 43 46 47 49 49 49 46 43 45 46 46 45 48
62 62 61 59 59 59 57 57 55 55 56 54 53 54 54 52 50 50 51 49 50 50 51 51 51 50 49 50 48 48 45 45 44 44 43 43 43 44 43 43 44 46 47 47 47 43 42 43 44 44 45 45
61 59 58 58 58 58 57 56 56 55 53 52 53 52 51 51 50 49 48 48 47 48 48 48 49 49 48 47 46 46 45 43 42 41 41 42 42 43 42 42 42 43 42 44 42 42 42 42 43 42 41 42
59 58 58 58 57 57 57 56 55 54 54 53 53 52 51 51 50 51 49 48 47 47 46 46 48 48 48 45 45 46 44 45 43 42 41 42 42 43 43 43 42 42 43 41 42 41 41 42 43 42 43 42
59 58 57 57 57 55 55 55 54 54 54 52 52 52 51 51 50 50 49 49 48 47 46 46 45 46 47 45 44 45 44 42 43 42 43 42 43 43 43 43 42 42 41 41 41 40 40 41 42 40 41 40
59 58 57 57 55 53 53 53 53 53 52 52 52 51 51 50 50 49 49 47 48 48 45 45 45 46 46 47 46 45 43 42 41 41 40 41 42 41 42 42 41 42 42 40 40 41 40 40 40 40 40 40
56 56 56 56 54 52 52 50 51 51 52 52 50 51 52 51 49 48 48 48 47 47 45 46 45 45 45 44 44 43 42 41 40 39 39 39 40 42 41 39 39 38 39 38 38 38 38 40 37 37 39 37
54 56 55 55 53 52 51 50 49 50 50 49 50 51 48 50 50 48 48 47 46 46 45 44 43 44 42 44 43 41 41 40 41 40 39 39 39 39 39 37 38 37 38 37 39 37 38 39 39 37 37 37
51 53 53 52 50 51 50 50 49 49 49 49 49 50 49 49 49 49 48 47 47 44 45 44 43 42 44 43 42 41 40 41 40 39 39 38 38 37 37 39 36 36 37 37 37 36 37 37 37 35 35 36
47 47 48 49 50 50 50 49 48 48 49 49 49 49 49 49 50 49 48 47 46 45 45 43 44 44 43 43 41 40 39 39 40 39 38 37 38 38 36 36 37 36 38 36 36 35 35 36 37 37 36 35
43 43 43 43 45 47 47 48 48 48 48 47 48 48 48 49 48 48 48 48 47 44 45 44 42 42 43 42 41 38 39 37 39 38 37 36 36 38 36 35 36 35 36 37 37 34 35 35 35 34 36 36
41 41 41 41 41 40 41 44 44 46 46 45 46 46 46 47 46 46 46 46 46 44 43 41 41 40 41 41 37 38 38 37 37 37 36 36 36 36 36 34 35 36 36 36 36 35 35 35 36 34 35 37
40 40 39 39 39 39 38 38 39 42 44 44 44 45 45 45 45 46 46 45 44 44 43 41 39 39 40 39 38 37 37 35 35 36 36 35 35 35 35 37 37 35 35 34 33 34 34 35 35 36 35 35
40 39 38 38 38 38 37 37 37 36 38 42 42 43 44 44 45 44 44 44 44 43 42 40 38 38 37 38 38 37 37 36 36 37 36 35 36 35 35 34 37 35 36 34 32 33 33 33 35 36 36 36
41 41 40 38 38 38 36 35 34 33 35 36 37 41 42 42 43 44 43 42 41 42 41 40 38 38 38 38 37 37 37 36 37 37 36 36 35 35 35 35 35 36 36 32 31 29 30 32 32 34 34 34
40 41 41 40 39 38 35 37 37 36 36 36 36 38 39 40 40 41 41 41 41 40 40 40 38 37 38 37 37 37 37 37 36 36 36 35 36 34 34 34 36 36 37 30 33 33 31 26 29 32 33 33
41 39 39 38 38 37 36 34 35 35 35 35 35 36 37 38 38 39 40 41 40 41 40 40 40 39 38 38 37 37 37 36 36 36 36 36 36 36 34 35 35 37 37 35 35 28 27 26 27 26 29 31
39 38 37 35 35 35 34 34 33 33 33 33 34 34 36 37 38 38 39 39 40 40 40 39 41 40 40 38 37 37 36 37 37 37 37 37 36 37 35 33 34 35 37 35 37 31 30 28 26 26 30 30
38 37 35 34 33 33 33 32 31 32 32 31 31 32 34 36 37 37 38 39 39 40 40 40 40 40 40 40 38 38 37 37 35 36 36 37 37 36 36 35 31 32 35 38 37 36 31 30 25 31 31 30
38 37 36 36 36 36 35 35 34 34 34 33 33 33 33 33 34 36 37 38 38 39 39 40 40 40 40 40 41 39 38 37 36 36 37 37 37 37 37 36 33 32 32 32 35 35 27 26 24 24 29 27
MSLP
1014.04 1014.40 1014.68 1014.92 1015.16 1015.40 1015.72 1016.04 1016.20 1016.60 1017.08 1017.36 1017.44 1017.76 1017.88 1018.00 1018.32 1018.68 1019.04 1019.24 1019.40 1019.60 1019.76 1019.92 1020.04 1020.08 1020.20 1020.32 1020.48 1020.60 1020.72 1020.92 1021.16 1021.28 1021.28 1021.32 1021.44 1021.68 1021.96 1022.24 1022.40 1022.44 1022.36 1022.28 1022.20 1022.16 1022.20 1022.24 1022.32 1022.48 1022.72 1023.04
1014.32 1014.56 1014.84 1015.00 1015.28 1015.52 1015.88 1016.12 1016.44 1016.96 1017.32 1017.44 1017.72 1018.04 1018.12 1018.24 1018.48 1018.92 1019.20 1019.40 1019.60 1019.76 1019.88 1020.12 1020.28 1020.40 1020.36 1020.36 1020.44 1020.56 1020.80 1021.16 1021.56 1021.68 1021.60 1021.68 1021.76 1022.00 1022.24 1022.44 1022.64 1022.72 1022.60 1022.48 1022.44 1022.48 1022.44 1022.52 1022.64 1022.80 1023.04 1023.28
1014.48 1014.72 1015.00 1015.16 1015.40 1015.76 1016.08 1016.36 1016.80 1017.24 1017.44 1017.60 1018.04 1018.36 1018.44 1018.48 1018.68 1019.16 1019.40 1019.64 1019.88 1020.04 1020.16 1020.32 1020.52 1020.56 1020.48 1020.40 1020.48 1020.80 1021.08 1021.36 1021.68 1021.92 1021.96 1022.04 1022.16 1022.32 1022.48 1022.68 1022.92 1022.96 1022.88 1022.80 1022.80 1022.76 1022.76 1022.88 1022.96 1023.16 1023.36 1023.60
1014.72 1014.80 1015.04 1015.32 1015.60 1016.00 1016.44 1016.76 1017.16 1017.48 1017.60 1017.84 1018.36 1018.64 1018.80 1018.80 1019.00 1019.32 1019.68 1019.92 1020.20 1020.32 1020.40 1020.52 1020.68 1020.68 1020.60 1020.56 1020.68 1020.92 1021.32 1021.52 1021.68 1022.04 1022.28 1022.36 1022.44 1022.56 1022.72 1022.92 1023.12 1023.28 1023.20 1023.12 1023.08 1023.04 1023.08 1023.08 1023.24 1023.44 1023.64 1023.84
1014.96 1015.16 1015.28 1015.68 1015.96 1016.32 1016.72 1017.16 1017.44 1017.60 1017.76 1018.16 1018.60 1018.84 1019.04 1019.16 1019.40 1019.64 1019.92 1020.20 1020.44 1020.60 1020.68 1020.72 1020.80 1020.84 1020.84 1020.72 1020.88 1021.08 1021.36 1021.60 1021.88 1022.16 1022.52 1022.76 1022.88 1023.12 1023.36 1023.48 1023.60 1023.68 1023.56 1023.36 1023.32 1023.32 1023.32 1023.40 1023.52 1023.64 1023.84 1024.04
1015.16 1015.36 1015.52 1015.92 1016.24 1016.60 1017.04 1017.40 1017.56 1017.76 1018.00 1018.44 1018.76 1018.96 1019.20 1019.44 1019.64 1019.88 1020.12 1020.40 1020.64 1020.84 1020.88 1020.92 1021.00 1021.08 1021.08 1021.00 1021.04 1021.20 1021.48 1021.72 1022.08 1022.52 1022.88 1023.28 1023.44 1023.48 1023.60 1023.72 1023.88 1023.88 1023.76 1023.56 1023.56 1023.56 1023.56 1023.68 1023.76 1023.92 1024.04 1024.20
1015.36 1015.48 1015.76 1016.08 1016.36 1016.76 1017.16 1017.48 1017.68 1017.88 1018.16 1018.60 1018.84 1019.04 1019.24 1019.44 1019.72 1019.96 1020.24 1020.60 1020.84 1021.00 1021.08 1021.16 1021.20 1021.32 1021.32 1021.24 1021.20 1021.40 1021.68 1022.04 1022.44 1022.72 1023.16 1023.48 1023.60 1023.68 1023.72 1023.92 1024.00 1024.00 1023.92 1023.84 1023.76 1023.76 1023.88 1023.96 1024.04 1024.24 1024.40 1024.60
1015.56 1015.60 1015.76 1016.16 1016.48 1016.76 1017.16 1017.48 1017.76 1017.96 1018.28 1018.68 1018.92 1019.04 1019.16 1019.40 1019.68 1020.12 1020.52 1020.80 1021.00 1021.20 1021.32 1021.48 1021.52 1021.64 1021.80 1021.80 1021.76 1021.84 1022.08 1022.40 1022.80 1023.08 1023.28 1023.56 1023.76 1023.84 1023.96 1024.08 1024.08 1024.08 1024.04 1024.04 1024.12 1024.12 1024.24 1024.28 1024.32 1024.56 1024.72 1025.00
1015.28 1015.52 1015.80 1016.12 1016.44 1016.68 1017.08 1017.52 1017.76 1017.96 1018.28 1018.68 1018.84 1018.96 1019.08 1019.44 1019.88 1020.28 1020.64 1020.88 1021.12 1021.40 1021.56 1021.76 1021.92 1022.04 1022.28 1022.36 1022.48 1022.44 1022.68 1022.92 1023.20 1023.44 1023.64 1023.76 1023.92 1024.08 1024.12 1024.12 1024.16 1024.16 1024.20 1024.28 1024.40 1024.48 1024.52 1024.64 1024.60 1024.80 1024.96 1025.28
1014.80 1015.20 1015.60 1016.12 1016.36 1016.68 1017.08 1017.44 1017.68 1017.92 1018.24 1018.60 1018.72 1018.92 1019.16 1019.52 1020.00 1020.40 1020.68 1020.88 1021.12 1021.44 1021.72 1021.88 1022.08 1022.28 1022.48 1022.68 1022.76 1022.76 1022.92 1023.08 1023.36 1023.56 1023.68 1023.84 1024.08 1024.24 1024.28 1024.36 1024.36 1024.24 1024.28 1024.40 1024.64 1024.76 1024.80 1024.84 1024.96 1025.04 1025.32 1025.56
1014.72 1015.12 1015.44 1015.80 1016.16 1016.48 1017.04 1017.32 1017.60 1017.88 1018.20 1018.52 1018.68 1018.96 1019.24 1019.56 1020.00 1020.40 1020.68 1020.84 1021.04 1021.40 1021.72 1021.92 1022.16 1022.40 1022.56 1022.76 1022.88 1022.92 1022.96 1023.12 1023.32 1023.52 1023.72 1023.96 1024.20 1024.32 1024.56 1024.56 1024.60 1024.52 1024.36 1024.60 1024.84 1025.08 1025.12 1025.12 1025.20 1025.32 1025.52 1025.72
1014.64 1015.00 1015.28 1015.76 1016.08 1016.44 1016.84 1017.24 1017.56 1017.80 1018.12 1018.48 1018.72 1018.96 1019.20 1019.60 1020.04 1020.36 1020.60 1020.76 1021.00 1021.28 1021.56 1021.88 1022.08 1022.36 1022.60 1022.72 1022.80 1022.92 1023.00 1023.20 1023.36 1023.48 1023.80 1024.04 1024.24 1024.60 1024.68 1024.80 1024.72 1024.64 1024.72 1024.88 1025.12 1025.40 1025.44 1025.40 1025.44 1025.52 1025.68 1025.88
1014.40 1014.80 1015.28 1015.72 1016.00 1016.40 1016.84 1017.28 1017.56 1017.76 1018.08 1018.48 1018.76 1019.04 1019.40 1019.64 1019.96 1020.32 1020.56 1020.72 1020.96 1021.24 1021.52 1021.80 1022.04 1022.28 1022.44 1022.56 1022.68 1022.80 1023.12 1023.28 1023.48 1023.68 1023.84 1024.08 1024.44 1024.76 1024.92 1025.04 1025.04 1025.00 1025.04 1025.16 1025.44 1025.64 1025.72 1025.76 1025.80 1025.88 1026.00 1026.16
1014.32 1014.72 1015.32 1015.72 1016.00 1016.36 1016.84 1017.24 1017.52 1017.76 1018.12 1018.48 1018.84 1019.24 1019.40 1019.60 1019.88 1020.20 1020.48 1020.76 1020.92 1021.16 1021.44 1021.72 1021.96 1022.28 1022.40 1022.56 1022.72 1022.96 1023.28 1023.44 1023.60 1023.76 1023.92 1024.16 1024.44 1024.76 1025.00 1025.16 1025.20 1025.24 1025.32 1025.48 1025.68 1025.80 1025.92 1026.04 1026.16 1026.24 1026.32 1026.48
1014.32 1014.76 1015.32 1015.76 1016.04 1016.44 1016.80 1017.20 1017.52 1017.84 1018.20 1018.56 1018.92 1019.16 1019.32 1019.56 1019.80 1020.12 1020.44 1020.76 1020.96 1021.20 1021.44 1021.68 1021.92 1022.16 1022.36 1022.56 1022.76 1023.04 1023.40 1023.60 1023.76 1023.88 1024.04 1024.28 1024.52 1024.72 1024.88 1025.08 1025.20 1025.36 1025.52 1025.68 1025.80 1025.84 1025.96 1026.16 1026.32 1026.48 1026.56 1026.68
1014.36 1014.76 1015.24 1015.72 1016.12 1016.48 1016.84 1017.16 1017.52 1017.88 1018.20 1018.56 1018.80 1019.04 1019.28 1019.48 1019.76 1020.04 1020.36 1020.68 1021.00 1021.28 1021.56 1021.80 1022.00 1022.24 1022.44 1022.68 1022.88 1023.12 1023.44 1023.64 1023.80 1023.92 1024.08 1024.16 1024.36 1024.52 1024.72 1024.96 1025.16 1025.32 1025.56 1025.76 1025.88 1025.96 1026.12 1026.24 1026.44 1026.64 1026.80 1026.96
1014.32 1014.76 1015.04 1015.60 1016.12 1016.52 1016.80 1017.24 1017.52 1017.80 1018.12 1018.44 1018.72 1019.00 1019.24 1019.48 1019.72 1019.96 1020.24 1020.56 1020.92 1021.32 1021.64 1021.84 1022.08 1022.32 1022.52 1022.72 1022.96 1023.24 1023.48 1023.72 1023.88 1024.00 1024.08 1024.20 1024.32 1024.48 1024.64 1024.88 1025.12 1025.24 1025.48 1025.76 1025.96 1026.08 1026.20 1026.36 1026.56 1026.76 1027.00 1027.16
1014.60 1014.80 1014.96 1015.32 1016.08 1016.48 1016.76 1017.24 1017.52 1017.84 1018.12 1018.40 1018.72 1018.96 1019.20 1019.44 1019.72 1019.96 1020.24 1020.48 1020.84 1021.20 1021.56 1021.84 1022.08 1022.32 1022.56 1022.76 1023.04 1023.36 1023.64 1023.88 1024.04 1024.20 1024.24 1024.28 1024.36 1024.52 1024.68 1024.92 1025.12 1025.28 1025.52 1025.80 1026.00 1026.16 1026.32 1026.52 1026.68 1026.84 1027.04 1027.24
1014.60 1014.92 1014.92 1015.12 1015.76 1016.24 1016.48 1017.08 1017.48 1017.80 1018.16 1018.48 1018.72 1018.96 1019.24 1019.40 1019.68 1019.96 1020.24 1020.48 1020.76 1021.08 1021.40 1021.76 1022.00 1022.28 1022.52 1022.80 1023.16 1023.44 1023.72 1023.92 1024.12 1024.28 1024.40 1024.36 1024.40 1024.56 1024.76 1024.96 1025.16 1025.32 1025.56 1025.80 1026.04 1026.20 1026.36 1026.56 1026.72 1026.92 1027.12 1027.28
1014.32 1014.84 1015.12 1015.28 1015.64 1016.08 1016.36 1016.84 1017.32 1017.68 1018.04 1018.48 1018.80 1019.00 1019.24 1019.44 1019.64 1019.88 1020.20 1020.44 1020.72 1021.00 1021.28 1021.60 1021.92 1022.16 1022.48 1022.80 1023.16 1023.44 1023.60 1023.80 1024.04 1024.24 1024.44 1024.48 1024.44 1024.56 1024.76 1025.00 1025.20 1025.36 1025.56 1025.80 1026.08 1026.24 1026.36 1026.56 1026.72 1026.92 1027.12 1027.32
1015.04 1014.92 1015.36 1015.76 1016.00 1016.16 1016.40 1016.80 1017.32 1017.68 1017.92 1018.36 1018.72 1019.00 1019.20 1019.40 1019.64 1019.84 1020.08 1020.36 1020.64 1020.88 1021.16 1021.48 1021.80 1022.08 1022.40 1022.68 1023.00 1023.28 1023.40 1023.60 1023.84 1024.08 1024.32 1024.44 1024.48 1024.56 1024.68 1024.96 1025.12 1025.32 1025.56 1025.84 1026.08 1026.28 1026.44 1026.60 1026.72 1026.88 1027.08 1027.28
1015.56 1015.72 1015.72 1016.16 1016.48 1016.60 1016.76 1017.08 1017.44 1017.76 1018.00 1018.28 1018.52 1018.84 1019.12 1019.32 1019.60 1019.84 1020.04 1020.24 1020.52 1020.76 1021.00 1021.32 1021.64 1022.00 1022.32 1022.60 1022.88 1023.12 1023.28 1023.44 1023.68 1023.92 1024.12 1024.32 1024.44 1024.52 1024.64 1024.92 1025.08 1025.20 1025.48 1025.76 1026.04 1026.28 1026.48 1026.64 1026.72 1026.84 1027.04 1027.20
1016.00 1016.12 1016.36 1016.60 1016.92 1017.24 1017.40 1017.56 1017.80 1017.88 1018.16 1018.44 1018.64 1018.84 1019.16 1019.36 1019.56 1019.84 1020.12 1020.32 1020.44 1020.64 1020.92 1021.16 1021.52 1021.96 1022.24 1022.48 1022.80 1023.08 1023.24 1023.36 1023.56 1023.84 1024.04 1024.20 1024.32 1024.48 1024.64 1024.84 1025.04 1025.20 1025.44 1025.76 1026.00 1026.24 1026.44 1026.60 1026.68 1026.76 1026.92 1027.08
1016.00 1016.40 1016.64 1016.92 1017.28 1017.56 1017.88 1018.16 1018.28 1018.32 1018.32 1018.48 1018.76 1018.92 1019.12 1019.44 1019.68 1019.88 1020.12 1020.32 1020.52 1020.72 1020.88 1021.12 1021.44 1021.84 1022.16 1022.40 1022.72 1022.96 1023.16 1023.28 1023.48 1023.64 1023.88 1024.12 1024.20 1024.40 1024.56 1024.80 1024.96 1025.16 1025.48 1025.80 1026.04 1026.24 1026.40 1026.52 1026.64 1026.68 1026.80 1026.96
1015.72 1016.20 1016.92 1017.28 1017.28 1017.40 1017.96 1018.32 1018.64 1018.84 1018.84 1018.72 1018.84 1018.96 1019.16 1019.40 1019.68 1019.92 1020.16 1020.32 1020.44 1020.64 1020.84 1021.12 1021.48 1021.76 1022.08 1022.32 1022.60 1022.80 1022.96 1023.12 1023.36 1023.52 1023.72 1023.96 1024.16 1024.24 1024.48 1024.68 1024.84 1025.16 1025.44 1025.84 1026.28 1026.36 1026.48 1026.56 1026.56 1026.60 1026.68 1026.84
1015.60 1015.72 1015.92 1016.20 1016.84 1017.28 1018.00 1018.24 1018.56 1018.96 1019.28 1019.28 1019.24 1019.28 1019.28 1019.36 1019.64 1019.84 1020.08 1020.32 1020.52 1020.60 1020.72 1020.96 1021.36 1021.64 1021.88 1022.12 1022.40 1022.64 1022.80 1023.00 1023.20 1023.44 1023.64 1023.80 1024.12 1024.24 1024.32 1024.44 1024.60 1024.92 1025.20 1025.96 1026.00 1026.48 1026.76 1026.72 1026.64 1026.60 1026.64 1026.68
1016.04 1016.24 1016.36 1016.52 1017.04 1017.24 1017.96 1018.52 1018.64 1018.88 1019.24 1019.44 1019.56 1019.56 1019.52 1019.56 1019.68 1019.84 1020.08 1020.32 1020.48 1020.64 1020.80 1020.96 1021.20 1021.44 1021.68 1021.92 1022.20 1022.48 1022.64 1022.80 1023.00 1023.20 1023.36 1023.56 1023.68 1024.12 1024.32 1024.28 1024.44 1024.60 1024.56 1025.04 1025.68 1026.04 1026.44 1026.72 1027.12 1026.72 1026.72 1026.60
1016.84 1016.96 1016.96 1017.04 1017.40 1017.96 1018.24 1018.68 1018.96 1019.12 1019.40 1019.60 1019.72 1019.72 1019.72 1019.76 1019.84 1019.96 1020.08 1020.24 1020.44 1020.64 1020.80 1020.92 1021.12 1021.36 1021.56 1021.72 1021.92 1022.16 1022.44 1022.68 1022.92 1023.12 1023.32 1023.44 1023.60 1023.76 1024.12 1024.12 1024.20 1024.32 1024.40 1024.48 1024.96 1026.00 1025.56 1025.80 1026.20 1025.96 1026.12 1026.48
1017.20 1017.40 1017.64 1017.92 1018.08 1018.24 1018.64 1019.04 1019.20 1019.36 1019.60 1019.72 1019.80 1019.88 1019.88 1019.88 1019.96 1020.04 1020.20 1020.32 1020.44 1020.60 1020.72 1020.92 1021.08 1021.24 1021.44 1021.64 1021.76 1022.00 1022.20 1022.44 1022.64 1022.84 1023.00 1023.16 1023.32 1023.40 1023.48 1023.92 1024.00 1024.24 1024.20 1024.20 1024.16 1023.92 1024.88 1025.04 1025.40 1024.36 1024.20 1026.00
1017.44 1017.72 1017.92 1018.12 1018.32 1018.56 1018.64 1018.92 1019.32 1019.08 1019.12 1019.64 1019.72 1019.68 1019.84 1020.04 1020.12 1020.24 1020.36 1020.48 1020.52 1020.60 1020.72 1020.84 1021.00 1021.16 1021.32 1021.52 1021.68 1021.80 1021.92 1022.16 1022.52 1022.76 1022.88 1022.92 1022.96 1023.20 1023.36 1023.48 1023.72 1024.04 1024.16 1024.08 1024.04 1023.80 1023.64 1023.52 1023.32 1023.44 1023.72 1024.84
1017.04 1017.52 1017.92 1018.12 1018.20 1018.32 1018.64 1018.76 1019.04 1019.08 1019.20 1019.56 1019.84 1019.96 1020.00 1020.16 1020.28 1020.36 1020.40 1020.44 1020.60 1020.72 1020.76 1020.76 1020.88 1021.04 1021.20 1021.36 1021.48 1021.60 1021.76 1021.88 1022.00 1022.24 1022.48 1022.76 1022.92 1022.92 1023.12 1023.32 1023.44 1023.64 1023.96 1024.32 1024.12 1023.88 1024.16 1024.32 1024.60 1024.76 1024.12 1023.56
Wind_Speed
16 19 19 21 21 20 19 19 19 18 18 16 16 14 13 15 17 14 14 13 15 16 17 15 14 14 14 16 16 15 13 12 13 13 14 15 15 16 16 15 14 11 9 11 14 14 11 10 13 14 10 6
17 16 18 18 18 19 19 18 18 18 17 16 15 12 9 16 18 14 14 13 14 14 14 14 13 13 14 16 15 14 15 16 15 15 16 17 17 17 16 16 14 10 9 12 14 12 11 14 16 13 11 7
13 17 16 17 18 17 17 18 17 17 16 15 13 11 6 12 19 15 14 13 14 13 15 14 14 14 15 16 16 16 17 18 17 17 17 18 17 16 16 15 14 10 9 12 12 11 11 14 14 13 8 6
9 15 17 17 19 19 18 17 16 15 15 15 12 11 14 16 13 13 12 16 12 13 12 14 9 13 15 16 17 19 18 17 17 16 16 15 16 15 16 15 12 10 8 11 10 9 9 11 10 7 6 6
9 12 18 16 19 19 18 16 15 15 16 13 11 12 14 13 9 7 7 8 8 10 5 9 9 11 14 17 18 18 17 16 16 15 15 15 17 17 15 12 11 8 7 9 9 7 6 6 7 6 6 6
9 10 14 14 13 13 14 14 14 12 10 9 6 11 10 7 7 6 6 6 8 5 6 7 9 10 14 17 18 18 17 15 16 18 17 17 15 14 13 11 4 3 6 8 8 6 8 6 6 6 6 6
9 11 10 11 11 10 12 10 10 9 10 7 7 5 4 6 6 7 7 6 6 6 8 7 10 12 13 15 17 17 16 16 18 19 17 15 13 13 13 6 1 0 2 5 8 8 7 5 7 7 8 8
8 9 10 9 9 9 8 7 8 8 8 7 7 5 4 6 6 8 7 12 13 9 5 7 13 15 16 18 19 16 12 18 18 18 17 14 11 8 4 3 2 1 0 3 5 5 6 5 7 7 6 7
10 9 9 8 8 8 8 6 7 7 8 7 7 6 5 7 8 8 7 7 7 5 6 6 6 7 6 6 8 14 9 8 9 7 4 4 5 3 2 2 2 1 0 4 5 5 6 4 6 6 7 7
12 11 10 8 8 9 7 7 7 6 7 7 6 3 8 8 9 7 7 6 6 7 5 5 5 6 6 6 5 6 7 7 6 5 4 5 5 2 3 5 5 3 3 4 5 4 4 5 5 5 7 7
10 9 9 9 9 9 8 7 7 7 7 6 4 6 6 7 7 6 6 6 6 8 6 5 5 6 6 6 5 4 5 6 6 6 6 5 4 3 5 3 4 5 4 6 6 5 4 4 5 6 7 6
10 9 10 9 9 8 9 8 6 7 6 6 6 6 6 6 6 6 6 5 7 6 6 6 6 6 6 6 5 6 6 6 5 6 4 5 4 5 3 2 2 4 5 6 6 4 4 5 6 6 5 7
9 9 9 9 8 9 9 7 6 7 7 6 6 5 5 5 6 7 5 5 6 6 6 5 6 5 5 5 4 5 5 6 6 6 5 6 4 6 5 2 0 2 3 5 5 4 4 4 5 6 6 5
8 9 9 8 8 9 8 7 7 6 6 6 7 6 5 5 5 6 6 5 4 5 5 6 6 7 6 5 4 6 6 5 5 6 6 5 4 5 4 4 2 3 4 5 4 4 4 4 5 4 4 4
8 9 9 8 8 8 7 8 8 7 7 6 6 6 6 5 5 6 6 5 4 4 5 4 5 5 5 5 5 6 6 6 5 5 6 6 7 6 6 6 4 5 5 5 4 4 4 5 5 5 5 4
10 10 10 9 9 7 7 8 8 8 7 7 6 6 6 5 5 6 6 6 5 5 4 4 4 5 5 5 5 6 6 6 5 6 5 5 5 5 4 6 4 4 6 5 4 4 4 5 6 5 5 5
9 9 10 11 8 7 8 7 7 7 7 7 7 6 6 5 5 5 7 7 6 6 5 4 4 5 4 5 6 6 5 5 4 5 5 4 4 5 5 5 4 3 6 6 4 5 4 6 4 4 5 5
6 8 9 10 8 8 9 6 6 6 6 6 6 7 7 6 5 5 6 6 6 7 6 5 5 5 5 5 6 6 6 6 5 5 5 4 5 4 5 5 4 3 6 6 5 4 4 5 4 5 5 4
8 6 8 10 10 9 10 8 7 6 6 6 6 6 6 6 6 5 6 6 7 6 6 6 6 5 6 7 7 7 6 6 6 5 5 5 6 4 6 5 4 4 6 5 5 4 4 5 5 4 5 5
8 7 5 7 8 8 9 9 8 7 7 7 6 5 6 5 6 6 6 6 6 6 7 7 6 6 7 7 7 7 6 5 6 6 5 4 5 6 5 6 4 4 5 4 4 4 5 5 4 5 4 4
5 8 8 6 6 7 8 8 8 7 8 7 7 6 5 6 6 6 7 7 6 6 7 7 7 6 7 6 7 7 6 6 6 7 6 4 4 5 6 7 5 4 6 5 4 4 4 4 4 5 5 4
6 6 8 7 6 5 6 6 6 6 6 7 7 7 7 7 5 5 7 8 7 6 7 6 7 7 8 6 7 7 5 7 6 6 6 6 4 6 5 7 6 5 6 5 5 4 4 4 3 4 5 5
7 8 8 7 7 6 5 5 4 5 6 5 5 6 5 6 6 5 5 5 5 7 7 7 7 8 7 6 7 7 6 5 6 6 5 6 4 4 5 6 5 6 6 5 4 4 4 4 4 3 5 6
7 5 6 7 7 6 4 4 4 3 4 5 5 5 7 6 5 5 5 5 4 5 6 6 7 8 7 6 7 7 7 6 7 8 7 7 6 5 4 6 5 5 7 5 5 4 3 4 4 3 4 5
7 7 6 4 5 6 5 4 4 2 2 4 4 6 7 7 6 5 4 4 5 6 7 7 7 8 6 6 7 7 7 6 6 7 6 7 5 6 5 4 6 5 8 7 3 2 3 3 4 4 4 5
6 4 3 5 6 5 5 6 6 4 2 2 2 4 5 6 6 6 6 4 4 4 7 8 8 8 8 7 7 7 6 6 6 7 6 6 6 4 7 5 6 7 9 4 7 5 2 2 3 4 4 5
2 2 3 3 3 6 5 3 3 4 3 2 3 2 4 4 4 6 5 5 4 4 4 5 7 8 8 7 7 7 8 7 8 8 9 8 9 7 4 4 5 8 8 5 7 5 4 3 3 4 4 5
6 6 8 8 7 6 4 3 4 5 3 2 3 3 3 3 4 4 5 6 5 4 4 5 7 6 7 8 7 7 8 7 8 8 7 7 7 8 8 6 7 7 7 6 10 6 4 4 4 2 10 7
5 6 7 6 8 7 7 5 4 4 2 4 3 2 5 6 4 4 4 4 5 5 5 4 5 6 6 6 6 7 7 7 8 8 8 9 8 10 10 8 5 6 9 7 7 6 5 2 3 6 2 8
4 4 4 4 4 4 2 4 5 7 7 7 7 7 3 2 3 3 3 4 5 4 4 5 4 5 7 7 6 7 7 7 6 8 9 10 8 8 7 8 5 7 6 10 8 7 3 3 4 3 3 6
7 5 4 3 1 1 1 1 2 0 1 3 2 2 3 4 3 4 5 4 4 4 4 4 4 5 6 6 6 6 5 7 9 8 9 8 8 8 7 8 8 8 8 4 8 8 1 3 2 3 2 4
Wind_Direction
141 148 146 144 139 136 135 134 128 127 128 120 117 128 142 127 118 128 125 130 126 123 123 119 119 118 125 121 125 127 128 131 131 126 122 121 120 116 115 115 108 95 93 85 73 65 57 62 72 71 72 84
148 147 145 139 134 134 134 130 126 128 125 121 122 129 137 121 120 131 128 133 125 122 121 117 117 127 130 129 129 130 125 120 122 121 116 113 112 111 114 113 105 90 90 77 72 69 63 79 83 77 74 73
140 142 138 130 124 118 111 110 116 123 124 115 109 118 137 119 119 122 123 120 118 121 122 115 121 134 135 132 128 123 123 119 118 113 108 106 109 112 113 112 105 84 80 79 76 74 78 92 98 96 86 75
136 129 122 114 110 111 112 115 120 121 109 100 113 114 93 99 100 113 122 123 116 116 118 120 128 136 135 132 127 122 121 120 113 112 109 109 110 114 112 114 83 45 53 77 75 71 86 88 78 80 86 87
109 108 105 104 106 106 106 108 111 111 104 95 102 108 107 98 101 104 111 109 111 110 103 111 124 127 134 130 122 119 120 116 115 113 110 109 103 91 76 58 51 22 17 64 66 54 60 74 79 78 84 90
116 110 108 110 110 109 110 112 112 111 109 105 109 118 118 117 115 114 110 107 101 104 100 103 115 122 133 129 124 119 120 117 113 106 105 102 102 96 95 83 44 349 9 46 47 33 41 88 83 74 70 75
115 116 113 113 114 115 117 120 115 116 113 117 122 133 144 127 132 123 109 93 103 121 110 107 107 106 130 129 125 120 112 111 111 111 112 113 109 109 102 100 134 323 354 40 32 22 23 59 80 65 60 49
127 124 122 124 123 123 124 123 125 124 117 127 143 172 164 128 108 95 96 103 102 101 91 84 81 81 71 70 73 80 99 108 103 105 107 105 105 99 109 151 127 83 9 44 44 22 21 56 82 83 73 67
139 134 128 131 131 128 125 125 136 135 127 144 169 185 135 102 96 109 116 116 114 111 107 105 100 94 94 89 91 97 87 82 96 98 95 91 70 60 58 73 86 126 72 69 57 33 19 23 88 92 87 78
141 142 139 141 140 134 134 140 144 137 132 153 175 120 96 105 115 122 128 143 138 129 132 125 115 109 116 112 118 113 113 118 116 118 117 100 86 47 28 27 9 5 65 68 72 51 18 21 35 79 89 85
141 141 142 144 146 140 140 143 144 136 135 151 141 105 110 113 116 130 145 155 137 140 145 147 129 124 126 130 129 125 119 116 119 114 118 127 128 93 49 27 24 356 39 56 64 40 30 30 38 51 87 96
147 146 143 143 140 137 141 142 145 137 139 146 115 117 112 121 130 136 152 148 136 145 147 152 143 140 141 145 154 155 142 132 121 119 121 119 123 104 76 33 9 20 47 60 59 51 35 38 37 35 48 93
151 139 137 140 142 138 141 138 139 138 140 132 117 120 136 135 135 139 136 134 141 146 151 153 139 139 154 150 157 119 104 106 117 127 127 115 102 103 118 136 177 87 85 81 75 74 56 59 48 38 33 45
144 137 135 142 137 135 136 139 140 132 128 126 130 151 149 140 136 134 134 140 146 138 141 146 146 149 162 146 120 110 118 121 123 129 116 117 114 129 139 156 163 119 83 89 100 93 93 85 77 62 50 47
139 136 138 141 131 139 138 136 130 129 132 134 147 152 144 143 137 134 136 139 139 112 113 112 118 126 118 109 115 118 125 131 141 131 134 150 156 160 153 160 148 128 111 87 74 79 83 92 86 72 54 57
144 141 141 134 134 138 130 129 133 137 143 145 145 143 142 146 139 135 137 141 132 123 127 135 121 121 119 131 125 118 125 127 136 141 145 144 143 150 145 131 149 130 120 116 102 80 76 76 88 85 75 61
143 145 139 136 139 126 125 130 135 140 144 142 141 142 147 143 139 136 137 140 134 137 146 146 133 131 138 136 120 112 118 119 112 109 117 119 128 137 120 121 128 108 121 116 115 111 100 85 85 98 91 85
132 142 139 133 129 133 124 129 127 126 129 132 136 146 153 145 141 136 136 137 136 143 147 150 145 144 135 122 108 112 116 119 121 124 120 133 119 131 118 126 124 119 106 112 118 111 111 104 106 100 101 103
132 148 143 136 141 145 136 132 128 128 120 118 136 141 150 146 142 141 143 142 141 150 148 146 142 147 137 119 116 124 140 136 136 133 139 148 131 130 123 123 128 133 126 123 129 128 122 120 112 98 108 102
128 121 114 127 139 139 137 136 139 138 133 131 133 144 143 146 149 146 146 145 148 152 144 142 147 147 129 125 131 144 158 144 142 142 143 168 141 143 141 131 145 135 126 130 131 139 139 134 131 132 120 132
81 107 106 111 124 133 132 135 136 135 135 137 142 145 146 151 157 155 150 152 158 148 144 148 149 142 134 138 143 152 156 146 146 143 146 168 150 149 145 143 152 143 132 133 137 142 141 136 143 145 148 154
84 72 95 87 84 96 105 112 124 133 137 143 148 148 155 155 155 152 158 159 161 150 150 153 148 137 144 149 144 146 149 153 139 141 142 159 158 154 139 145 153 151 138 138 136 148 135 143 157 157 149 164
82 90 79 79 87 78 73 73 81 114 128 134 137 140 139 142 144 144 156 163 161 149 157 149 141 138 152 149 142 143 151 152 141 146 148 151 159 152 145 149 157 154 140 135 138 145 151 146 187 178 153 158
109 91 104 116 99 95 85 71 78 75 120 132 134 136 138 140 138 143 158 163 160 148 153 144 139 144 154 151 144 151 159 165 155 161 156 158 156 155 147 143 158 140 125 122 129 147 158 167 187 195 166 162
145 139 124 96 138 144 136 124 88 63 46 112 133 138 141 147 147 146 158 171 164 159 153 144 137 145 158 157 154 161 172 166 161 163 161 155 158 155 155 166 161 154 129 124 117 119 161 189 207 206 176 185
160 158 152 144 160 134 145 146 151 145 140 94 87 125 143 148 150 155 160 175 174 165 162 153 149 156 168 164 165 166 168 163 159 161 165 154 154 174 158 179 170 168 127 157 161 147 188 245 254 228 215 204
144 92 76 91 124 138 126 75 98 103 115 114 127 121 138 155 144 154 157 167 176 166 174 161 153 163 167 171 163 163 173 169 166 170 173 170 164 165 180 172 184 177 161 152 149 145 114 220 180 274 236 237
38 55 58 67 88 74 61 115 93 78 86 109 125 170 160 176 160 165 164 166 176 168 183 174 167 160 169 177 171 168 170 173 170 172 178 174 173 163 171 183 199 185 180 155 152 171 183 186 146 241 231 204
90 89 66 70 72 80 81 71 97 107 154 182 182 166 189 193 172 169 166 175 183 177 186 191 168 169 173 176 176 167 170 177 179 180 184 180 175 183 177 182 176 200 190 203 196 143 132 187 197 221 180 170
93 74 104 108 115 132 141 155 172 197 201 187 194 192 151 165 183 174 184 188 193 193 182 196 184 170 169 180 180 181 179 172 169 181 186 194 187 184 189 176 163 190 209 205 222 225 164 159 173 185 190 122
132 128 131 146 130 98 176 207 216 75 99 161 165 139 170 185 186 199 190 187 193 206 200 193 193 184 180 183 188 186 180 180 186 185 188 186 192 197 180 169 196 185 190 186 235 237 131 101 104 133 135 192